Regional Weather Roundup
Issued by NWS

Home | Current Version | Previous Version | Graphics & Text | Print | Product List | Glossary Off
Versions: 1 2 3 4 5 6 7 8 9 10 11 12 13 14 15 16 17 18 19 20 21 22 23 24 25 26 27 28 29 30 31 32 33 34 35 36 37 38 39 40 41 42 43 44 45 46 47 48 49 50

000
ASUS43 KMKX 040100
RWRWI

WISCONSIN REGIONAL WEATHER ROUNDUP
NATIONAL WEATHER SERVICE MILWAUKEE/SULLIVAN WI
700 PM CST SAT DEC 03 2016

NOTE: "FAIR" INDICATES FEW OR NO CLOUDS BELOW 12,000 FEET WITH NO
SIGNIFICANT WEATHER AND/OR OBSTRUCTIONS TO VISIBILITY.

WIZ001-002-006>008-014>016-023>028-040200-
NORTHWEST WISCONSIN

CITY           SKY/WX    TMP DP  RH WIND       PRES   REMARKS
SUPERIOR ARPT  CLOUDY    31  22  68 S5        30.22F WCI  26
ASHLAND        CLOUDY    30  25  81 SE5       30.23F WCI  25
HAYWARD        CLOUDY    29  19  66 S6        30.21F WCI  23
SIREN          CLOUDY    30  21  69 S5        30.22S WCI  25
CUMBERLAND     CLOUDY    28  19  69 S12       30.22S WCI  18
RICE LAKE      CLOUDY    30  22  72 S8        30.24S WCI  22
CHETEK         CLOUDY    29  22  74 S5        30.23F WCI  24
LADYSMITH      CLOUDY    30  24  80 S3        30.24F
EAU CLAIRE     NOT AVBL
MENOMONIE      CLOUDY    30  22  73 E5        30.24F WCI  25
NEW RICHMOND   MOCLDY    28  22  76 SE3       30.22F
OSCEOLA        CLOUDY    30  22  73 SE6       30.24F WCI  24
$$

WIZ003>005-009-010-017-018-040200-
NORTH CENTRAL WISCONSIN

CITY           SKY/WX    TMP DP  RH WIND       PRES   REMARKS
MANITOWISH WTR CLOUDY    27  24  86 S7        30.20F WCI  20
ARBOR VITAE    CLOUDY    29  24  79 S3        30.20F
WOODRUFF       CLOUDY    29  24  79 S3        30.20F
RHINELANDER    CLOUDY    28  20  71 S7        30.22S WCI  21
EAGLE RIVER    CLOUDY    28  19  71 CALM      30.20F
LAND O LAKES   CLOUDY    28  22  76 SW5       30.21F WCI  23
PHILLIPS       CLOUDY    28  21  76 SW6       30.21S WCI  21
TOMAHAWK       CLOUDY    28  20  73 CALM      30.23S
MEDFORD        CLOUDY    28  21  77 S8        30.22S WCI  19
MERRILL        CLOUDY    29  22  76 S3        30.25S
$$

WIZ029-030-035-036-043>047-040200-
CENTRAL WISCONSIN

CITY           SKY/WX    TMP DP  RH WIND       PRES   REMARKS
WAUSAU         CLOUDY    29  21  72 W5        30.23F WCI  24
MOSINEE        CLOUDY    28  23  80 S6        30.25F WCI  22
MARSHFIELD     CLOUDY    28  21  75 CALM      30.23F
STEVENS POINT  CLOUDY    28  20  74 SW3       30.26F
WAUPACA        CLOUDY    32  23  69 CALM      30.27F
WAUTOMA        CLOUDY    29  23  78 CALM      30.27F
WISC RAPIDS    CLOUDY    30  22  72 CALM      30.26F
CAMP DOUGLAS   NOT AVBL
$$

WIZ011>013-019>022-031-037>040-048>050-040200-
NORTHEAST WISCONSIN

CITY           SKY/WX    TMP DP  RH WIND       PRES   REMARKS
ANTIGO         CLOUDY    26  21  80 W3        30.24S
SHAWANO        CLOUDY    32  23  69 NW3       30.28S
OCONTO         CLOUDY    31  21  66 CALM      30.28F
STURGEON BAY   CLOUDY    31  24  75 SW12      30.28S WCI  22
GREEN BAY      CLOUDY    33  25  72 CALM      30.27F
MANITOWOC      NOT AVBL
APPLETON       CLOUDY    30  21  69 VRB3      30.25F
CLINTONVILLE   CLOUDY    32  23  69 CALM      30.27S
OSHKOSH        CLOUDY    30  21  69 W3        30.26F
$$

WIZ032>034-041-042-053>061-040200-
SOUTHWEST WISCONSIN

CITY           SKY/WX    TMP DP  RH WIND       PRES   REMARKS
LA CROSSE      CLOUDY    34  26  72 E5        30.25F WCI  30
SPARTA         CLOUDY    31  25  78 CALM      30.26F
VIROQUA        CLOUDY    31  27  85 SE3       30.24S
BOSCOBEL       CLOUDY    34  26  72 CALM      30.27F
PRAIRIE DU CHI CLOUDY    33  26  73 CALM      30.25F
PLATTEVILLE    PTCLDY    32  30  91 E5        30.24F WCI  28
$$

WIZ056-057-062-063-064-067-068-040200-
SOUTH CENTRAL WISCONSIN

CITY           SKY/WX    TMP DP  RH WIND       PRES   REMARKS
REEDSBURG      CLOUDY    31  24  77 CALM      30.27S
BARABOO/DELLS  CLOUDY    31  23  72 CALM      30.26S
LONE ROCK      NOT AVBL
MINERAL POINT  PTCLDY    32  30  93 CALM      30.24F
MADISON        CLOUDY    32  23  69 CALM      30.27S
MIDDLETON      CLOUDY    33  28  81 CALM      30.27S
WATERTOWN      CLOUDY    30  27  86 SE3       30.28S
MONROE         MOCLDY    32  27  80 CALM      30.25F
JANESVILLE     CLOUDY    34  28  80 CALM      30.27F
$$

WIZ051-052-058>065-066-070>072-040200-
SOUTHEAST WISCONSIN

CITY           SKY/WX    TMP DP  RH WIND       PRES   REMARKS
MILWAUKEE      CLOUDY    33  20  58 NW3       30.29S
WAUKESHA       CLOUDY    28  21  74 CALM      30.29F
MILWAUKEE/TIMM CLOUDY    30  19  64 CALM      30.31S
RACINE         CLOUDY    32  23  69 CALM      30.31S
BURLINGTON     CLOUDY    31  26  83 CALM      30.29S
KENOSHA        CLOUDY    31  25  78 NE3       30.29F
FOND DU LAC    CLOUDY    30  20  66 NW3       30.27F
SHEBOYGAN      CLOUDY    30  22  72 SW3       30.29S
WEST BEND      CLOUDY    30  23  74 CALM      30.28S
JUNEAU         CLOUDY    29  24  78 CALM      30.28F
$$

LSZ147-162-040200-
LAKE SUPERIOR

STATION/POSITION TIME  TEMP    WIND        PRES    WAVE
                       AIR SEA DIR/SP/G            HT/PER
                 (UTC) (F)     (DEG/KT/KT) (MB)    (FT/S)
DEVILS ISLAND    0000   33     200/  4/  4 1024.5F
PORT WING        0040   31     160/  2/  3 1023.7F
SAXON HARBOR     0040   32     180/  2/  4 1023.7F
$$

LMZ867-665-643>646-040200-
LAKE MICHIGAN

STATION/POSITION TIME  TEMP    WIND        PRES    WAVE
                       AIR SEA DIR/SP/G            HT/PER
                 (UTC) (F)     (DEG/KT/KT) (MB)    (FT/S)
CHAMBERS ISLAND  0040   34     170/  4/  9 1024.0F
NORTHPORT PIER   0040   34     220/  4/ 11 1024.4F
SISTER BAY       2353   34     190/ 11/ 12   N/A
ALGOMA LAKESHORE 2321          240/  6/  7   N/A
KEWAUNEE LAKESHO 0030   32     250/  4/  6 1025.0F
SHEBOYGAN LAKESH 0000   32     240/  6/  7 1026.4F
PORT WASHINGTON  0030   32      10/  1/  3 1026.8F
MILWAUKEE LAKESH 0030   32     310/  5/  5   N/A
S MID LAKE BUOY  2350   35 48  270/ 10/ 14 1026.1F   1/ 3
KENOSHA   LAKESH 0000   32     310/  3/  5 1026.1
$$

TC  - TEMPERATURE IN CELSIUS
VSB - VISIBILITY IN STATUTE MILES
WCI - WIND CHILL INDEX
HX  - HEAT INDEX




USA.gov is the U.S. government's official web portal to all federal, state and local government web resources and services.